Location: ??????
(55.6361°N, 38.0803°E)
Time: 01:01:23
(UTC+00:00)

Spot 4 Rocket - Pass Details

Date: 30 March 2020
Orbit: 776 x 782 km, 98.7° (Epoch: 27 May)

Event Time Altitude Azimuth Distance (km) Brightness Sun altitude
Rises 01:17:26 0° 14° (NNE) 3,284 8.0 -14.9°
Reaches altitude 10° 01:19:47 10° 11° (N) 2,352 7.1 -14.6°
Maximum altitude 01:24:52 59° 293° (WNW) 909 4.2 -13.9°
Enters shadow 01:28:46 17° 219° (SW) 1,898 5.5 -13.5°
